WD6FGE Weather Reports


time (UTC)temp
C
wind
direction
speed
KPH
gust
KPH
rain 1hr
cm
rain 24hr
cm
rain mn
cm
humidity
%
barometer
mb
20181018052928 6 248 0.0 1.6 0.00 0.00 0.00 73 1019.9
20181018051937 6 248 0.0 1.6 0.00 0.00 0.00 67 1019.8
20181018050915 6 248 0.0 3.2 0.00 0.00 0.00 67 1019.8
20181018045842 7 246 0.0 3.2 0.00 0.00 0.00 65 1019.7
20181018044821 7 234 0.0 0.0 0.00 0.00 0.00 64 1019.6
20181018043806 7 234 0.0 1.6 0.00 0.00 0.00 62 1019.4
20181018042820 7 234 0.0 1.6 0.00 0.00 0.00 61 1019.2
20181018041748 8 234 0.0 1.6 0.00 0.00 0.00 60 1019.1
20181018040757 8 234 0.0 1.6 0.00 0.00 0.00 59 1019.0
20181018035746 10 234 0.0 1.6 0.00 0.00 0.00 56 1018.8
20181018034728 12 212 0.0 0.0 0.00 0.00 0.00 53 1018.7
20181018033720 12 212 0.0 6.4 0.00 0.00 0.00 55 1018.7
20181018032730 12 240 1.6 6.4 0.00 0.00 0.00 54 1018.5
20181018031655 13 270 0.0 3.2 0.00 0.00 0.00 54 1018.5
20181018030623 13 273 1.6 4.8 0.00 0.00 0.00 54 1018.5
20181018025555 13 258 1.6 4.8 0.00 0.00 0.00 52 1018.4
20181018024536 12 281 0.0 3.2 0.00 0.00 0.00 54 1018.3
20181018023514 12 271 0.0 1.6 0.00 0.00 0.00 55 1018.3
20181018022508 12 247 0.0 1.6 0.00 0.00 0.00 51 1018.2
20181018021455 13 247 0.0 0.0 0.00 0.00 0.00 49 1018.1
20181018020431 13 247 0.0 1.6 0.00 0.00 0.00 49 1018.0
20181018015443 13 247 0.0 1.6 0.00 0.00 0.00 45 1017.9
20181018014507 14 247 0.0 1.6 0.00 0.00 0.00 44 1017.8
20181018013441 15 247 0.0 1.6 0.00 0.00 0.00 40 1017.6
20181018012410 16 247 0.0 1.6 0.00 0.00 0.00 39 1017.6
20181018011359 17 157 0.0 1.6 0.00 0.00 0.00 36 1017.4
20181018010359 18 227 0.0 3.2 0.00 0.00 0.00 34 1017.4
20181018005335 20 232 0.0 4.8 0.00 0.00 0.00 30 1017.2
20181018004400 21 232 0.0 4.8 0.00 0.00 0.00 28 1017.2
20181018003333 22 205 0.0 4.8 0.00 0.00 0.00 26 1017.2
20181018002331 23 200 1.6 4.8 0.00 0.00 0.00 23 1017.1
20181018001314 23 183 1.6 6.4 0.00 0.00 0.00 22 1017.2
20181018000337 24 190 1.6 6.4 0.00 0.00 0.00 21 1017.2
20181017235317 24 180 3.2 6.4 0.00 0.00 0.00 20 1017.3
20181017234259 24 207 1.6 6.4 0.00 0.00 0.00 20 1017.5
20181017233311 24 261 1.6 9.7 0.00 0.00 0.00 20 1017.5
20181017232238 24 195 3.2 9.7 0.00 0.00 0.00 22 1017.6
20181017231302 23 184 3.2 8.0 0.00 0.00 0.00 21 1017.7
20181017230252 23 194 4.8 9.7 0.00 0.00 0.00 22 1017.8
20181017225303 23 177 4.8 9.7 0.00 0.00 0.00 20 1017.9
20181017224232 24 213 1.6 8.0 0.00 0.00 0.00 20 1018.0
20181017223205 24 132 1.6 8.0 0.00 0.00 0.00 22 1018.0
20181017222213 24 133 3.2 8.0 0.00 0.00 0.00 21 1018.0
20181017221222 24 152 0.0 6.4 0.00 0.00 0.00 23 1018.1
20181017220242 23 277 1.6 9.7 0.00 0.00 0.00 23 1018.2
20181017215306 23 194 1.6 9.7 0.00 0.00 0.00 23 1018.3
20181017214320 24 203 1.6 9.7 0.00 0.00 0.00 23 1018.3
20181017213341 24 347 1.6 4.8 0.00 0.00 0.00 20 1018.5
20181017212346 23 69 1.6 6.4 0.00 0.00 0.00 20 1018.6
20181017211359 22 145 3.2 6.4 0.00 0.00 0.00 22 1018.9
20181017210407 22 171 1.6 8.0 0.00 0.00 0.00 23 1019.0
20181017205354 22 210 0.0 8.0 0.00 0.00 0.00 23 1019.3
20181017204341 22 59 0.0 0.0 0.00 0.00 0.00 24 1019.5
20181017203332 21 120 1.6 6.4 0.00 0.00 0.00 26 1019.8
20181017202309 21 330 1.6 6.4 0.00 0.00 0.00 26 1020.0
20181017201310 21 286 0.0 0.0 0.00 0.00 0.00 26 1020.1
20181017200307 21 129 1.6 6.4 0.00 0.00 0.00 27 1020.3
20181017195323 20 10 1.6 6.4 0.00 0.00 0.00 26 1020.6
20181017194305 20 355 1.6 4.8 0.00 0.00 0.00 28 1020.9
20181017193240 19 290 0.0 4.8 0.00 0.00 0.00 29 1021.1
20181017192207 19 200 0.0 0.0 0.00 0.00 0.00 31 1021.3
20181017191134 18 309 0.0 3.2 0.00 0.00 0.00 33 1021.4
20181017190118 17 42 1.6 6.4 0.00 0.00 0.00 31 1021.6
20181017185054 17 109 1.6 6.4 0.00 0.00 0.00 33 1021.7
20181017184119 16 143 0.0 4.8 0.00 0.00 0.00 35 1021.8
20181017183045 16 20 1.6 8.0 0.00 0.00 0.00 34 1021.9
20181017182042 16 136 3.2 8.0 0.00 0.00 0.00 36 1022.0
20181017181036 15 200 3.2 4.8 0.00 0.00 0.00 39 1022.1
20181017180009 15 160 1.6 3.2 0.00 0.00 0.00 39 1022.3
20181017175008 14 128 3.2 6.4 0.00 0.00 0.00 41 1022.3
20181017173958 13 143 1.6 4.8 0.00 0.00 0.00 43 1022.5
20181017172931 13 132 1.6 4.8 0.00 0.00 0.00 46 1022.6
20181017171922 12 126 1.6 4.8 0.00 0.00 0.00 46 1022.8
20181017170903 11 107 0.0 3.2 0.00 0.00 0.00 56 1022.8
20181017165856 9 150 1.6 3.2 0.00 0.00 0.00 69 1022.9
20181017164906 7 150 0.0 1.6 0.00 0.00 0.00 76 1023.0
20181017163901 6 153 1.6 4.8 0.00 0.00 0.00 85 1023.2
20181017162849 3 163 0.0 3.2 0.00 0.00 0.00 90 1023.3
20181017161824 2 259 0.0 1.6 0.00 0.00 0.00 90 1023.4
20181017160818 1 259 0.0 0.0 0.00 0.00 0.00 90 1023.5
20181017155811 0 259 0.0 1.6 0.00 0.00 0.00 90 1023.5
20181017154742 0 259 0.0 0.0 0.00 0.00 0.00 90 1023.5
20181017153739 0 259 0.0 1.6 0.00 0.00 0.00 90 1023.4
20181017152717 -1 259 0.0 1.6 0.00 0.00 0.00 90 1023.3
20181017151658 -1 259 0.0 0.0 0.00 0.00 0.00 90 1023.3
20181017150640 -1 259 0.0 0.0 0.00 0.00 0.00 90 1023.2
20181017145637 -1 259 0.0 0.0 0.00 0.00 0.00 89 1023.1
20181017144619 -1 260 0.0 0.0 0.00 0.00 0.00 90 1023.1
20181017143620 -1 260 0.0 0.0 0.00 0.00 0.00 90 1023.1
20181017142622 -1 259 0.0 0.0 0.00 0.00 0.00 89 1023.1
20181017141640 -1 259 0.0 0.0 0.00 0.00 0.00 89 1023.0
20181017140655 -1 259 0.0 0.0 0.00 0.00 0.00 89 1023.0
20181017135636 -1 259 0.0 0.0 0.00 0.00 0.00 89 1022.9
20181017134659 -1 259 0.0 0.0 0.00 0.00 0.00 89 1022.9
20181017133653 -1 259 0.0 0.0 0.00 0.00 0.00 89 1022.9
20181017132630 -1 259 0.0 0.0 0.00 0.00 0.00 88 1022.9
20181017131636 -1 259 0.0 0.0 0.00 0.00 0.00 88 1022.8
20181017130637 -1 259 0.0 0.0 0.00 0.00 0.00 88 1022.8
20181017125648 -1 259 0.0 0.0 0.00 0.00 0.00 88 1022.7
20181017124641 -1 259 0.0 0.0 0.00 0.00 0.00 88 1022.6
20181017123615 -1 259 0.0 0.0 0.00 0.00 0.00 88 1022.6
20181017122548 0 259 0.0 0.0 0.00 0.00 0.00 88 1022.5
20181017121511 0 259 0.0 0.0 0.00 0.00 0.00 88 1022.5
20181017120441 0 259 0.0 0.0 0.00 0.00 0.00 88 1022.5
20181017115427 0 259 0.0 0.0 0.00 0.00 0.00 88 1022.5
20181017114409 0 259 0.0 0.0 0.00 0.00 0.00 87 1022.4
20181017113352 0 259 0.0 0.0 0.00 0.00 0.00 87 1022.3
20181017112357 0 259 0.0 0.0 0.00 0.00 0.00 87 1022.3
20181017111332 0 259 0.0 0.0 0.00 0.00 0.00 87 1022.4
20181017110326 0 259 0.0 0.0 0.00 0.00 0.00 86 1022.3
20181017105345 0 259 0.0 3.2 0.00 0.00 0.00 86 1022.3
20181017104332 0 260 0.0 1.6 0.00 0.00 0.00 87 1022.3
20181017103334 0 260 0.0 0.0 0.00 0.00 0.00 86 1022.3
20181017102324 0 260 0.0 0.0 0.00 0.00 0.00 86 1022.3
20181017101251 0 260 0.0 0.0 0.00 0.00 0.00 86 1022.3
20181017100258 0 260 0.0 3.2 0.00 0.00 0.00 85 1022.3
20181017095315 0 259 0.0 0.0 0.00 0.00 0.00 84 1022.3
20181017094319 1 259 0.0 0.0 0.00 0.00 0.00 84 1022.3
20181017093333 1 259 0.0 3.2 0.00 0.00 0.00 83 1022.3
20181017092341 1 280 0.0 3.2 0.00 0.00 0.00 83 1022.4
20181017091325 1 279 0.0 4.8 0.00 0.00 0.00 83 1022.3
20181017090255 1 279 1.6 4.8 0.00 0.00 0.00 82 1022.3
20181017085239 1 105 0.0 4.8 0.00 0.00 0.00 82 1022.3
20181017084252 1 105 0.0 4.8 0.00 0.00 0.00 81 1022.4
20181017083313 2 105 0.0 3.2 0.00 0.00 0.00 80 1022.3
20181017082320 2 105 0.0 0.0 0.00 0.00 0.00 80 1022.3
20181017081323 2 105 0.0 0.0 0.00 0.00 0.00 80 1022.2
20181017080319 2 105 0.0 0.0 0.00 0.00 0.00 79 1022.2
20181017075342 2 105 0.0 0.0 0.00 0.00 0.00 79 1022.2
20181017074342 2 105 0.0 0.0 0.00 0.00 0.00 78 1022.2
20181017073319 3 105 0.0 0.0 0.00 0.00 0.00 77 1022.1
20181017072315 3 105 0.0 1.6 0.00 0.00 0.00 76 1022.2
20181017071327 3 105 0.0 1.6 0.00 0.00 0.00 76 1022.1
20181017070316 3 105 0.0 0.0 0.00 0.00 0.00 74 1022.1
20181017065312 4 105 1.6 4.8 0.00 0.00 0.00 74 1022.1
20181017064335 4 148 0.0 3.2 0.00 0.00 0.00 73 1021.9
20181017063313 4 233 0.0 3.2 0.00 0.00 0.00 72 1021.9
20181017062258 5 233 0.0 3.2 0.00 0.00 0.00 72 1021.9
20181017061253 5 233 0.0 3.2 0.00 0.00 0.00 69 1021.9
20181017060316 5 232 0.0 1.6 0.00 0.00 0.00 68 1021.8
20181017055334 5 167 0.0 0.0 0.00 0.00 0.00 68 1021.9
20181017054356 6 167 0.0 0.0 0.00 0.00 0.00 67 1021.8